Location: Çe?me
(36.3888°N, 29.7372°E)
Time: 21:20:45
(UTC+00:00)

Daily predictions for brighter satellites

Satellite Brightness Start Highest point End
(mag) Time Altitude Azimuth Time Altitude Azimuth Time Altitude Azimuth
Atlas 2A Centaur Rocket 4.5 15:23:50 10° SSW 15:27:44 31° SSE 15:40:18 10° E
Cosmos 540 Rocket 3.6 15:29:22 10° SSW 15:34:29 81° WNW 15:39:38 10° NNE
Cosmos 468 Rocket 4.0 15:32:51 10° SSW 15:38:03 83° ESE 15:43:15 10° NNE
Cosmos 1733 Rocket 3.4 15:36:39 10° N 15:40:50 42° E 15:45:01 10° SSE
Cosmos 2228 Rocket 3.1 15:40:04 10° S 15:44:32 69° E 15:49:03 10° NNE
Cosmos 2279 Rocket 4.0 15:39:24 10° N 15:45:35 68° E 15:51:43 10° SSE
Cosmos 841 Rocket 3.9 15:42:38 10° S 15:47:35 45° ESE 15:52:34 10° NNE
Cosmos 1898 Rocket 4.2 15:47:40 10° N 15:52:23 32° ENE 15:57:05 10° SE
PSLV R/B 3.5 15:49:35 10° S 15:53:38 82° WSW 15:57:43 10° NNW
SL-16 R/B 3.1 15:49:13 10° SSE 15:53:54 27° ESE 15:58:35 10° NE
Cosmos 1980 4.0 15:48:42 10° SSW 15:54:18 71° WNW 15:59:57 10° NNE
Dummy Sat-01 4.5 15:52:28 10° S 15:56:07 78° E 15:59:47 10° N
Aureole 1 Rocket 4.5 15:48:52 10° N 15:56:08 48° ENE 16:02:27 10° SE
Okean 1-7 3.2 15:55:06 10° SSE 15:59:13 49° E 16:03:21 10° NNE
Cosmos 1703 4.1 15:56:22 10° SSE 15:59:16 24° E 16:02:11 10° NE
SMAP 4.3 15:56:11 10° S 16:00:38 47° W 16:05:09 10° NNW
USA 267 4.3 16:01:41 10° SSE 16:07:58 49° SW 16:14:17 10° NW
ACS3 Solar Sail 2.1 16:02:02 10° SE 16:08:03 46° ENE 16:14:06 10° N
ATLAS 2AS CENTAUR R/B 3.8 16:03:28 10° N 16:08:27 21° NE 16:11:35 16° ENE
Lacrosse 5 3.8 16:05:39 10° WNW 16:10:12 34° WSW 16:14:45 10° S
BREEZE-M DEB 3.1 16:08:05 10° SSW 16:10:17 38° SE 16:12:58 17° ENE
Cosmos 1953 2.3 16:08:04 10° N 16:11:47 77° W 16:15:28 10° S
Cosmos 1437 Rocket 4.1 16:11:20 10° SE 16:13:35 18° E 16:13:35 18° E
SKYMED 2 3.7 16:11:08 10° N 16:15:29 78° WNW 16:19:48 10° SSW
Cosmos 2369 Rocket 4.0 16:14:02 10° NNE 16:15:05 11° NE 16:15:05 11° NE
IGS 5A 4.5 16:14:02 10° S 16:17:54 47° W 16:21:47 10° NNW
DNEPR-1 R/B 3.6 16:18:15 10° NNW 16:22:44 55° ENE 16:26:49 10° SE
Cosmos 372 Rocket 3.9 16:17:48 10° N 16:22:49 58° ENE 16:27:49 10° SSE
Cosmos 1174 4.0 16:19:55 10° NNW 16:23:54 88° ENE 16:28:49 10° SSE
EO 1 Delta rocket 3.8 16:21:42 10° N 16:26:20 84° W 16:31:09 10° SSW
Aureole 3 3.0 16:28:52 10° SSE 16:31:27 39° ESE 16:31:27 39° ESE
Cosmos 1908 Rocket 3.6 16:29:38 10° N 16:33:50 48° E 16:37:59 10° SSE
BREEZE-M TANK 3.3 16:30:23 10° NW 16:34:09 63° NNE 16:40:37 16° ESE
Cosmos 2026 Rocket 4.1 16:28:22 10° SSE 16:34:32 55° E 16:40:43 10° NNE
Meteor 1-31 Rocket 2.4 16:31:19 10° SSE 16:34:51 79° ENE 16:38:26 10° N
Cosmos 1932 4.4 16:30:02 10° SSW 16:36:13 85° ESE 16:41:22 16° NNE
Delta 2 Rocket 2.5 16:33:20 10° W 16:36:34 79° S 16:37:13 52° ESE
Atlas Centaur 2 3.7 16:40:14 10° SSE 16:40:31 10° SSE 16:40:47 10° SSE
Cosmos 1428 Rocket 4.4 16:35:11 10° S 16:41:25 88° E 16:47:37 10° N
Cosmos 1937 Rocket 3.4 16:37:29 10° NNW 16:42:37 66° ENE 16:47:45 10° SSE
Cosmos 2237 Rocket 4.1 16:43:57 10° WSW 16:48:44 27° WNW 16:53:31 10° N
Cosmos 1943 Rocket 2.9 16:44:31 10° NNW 16:50:01 55° WSW 16:55:26 10° S
YAOGAN 3 4.3 16:46:11 10° SSE 16:50:25 76° ENE 16:54:40 10° N
NOAA 15 4.5 16:45:46 10° SSE 16:51:00 90° SW 16:56:16 10° NNW
Cosmos 1825 2.2 16:48:45 10° S 16:50:59 46° S 16:50:59 46° S
NOAA 6 4.3 16:51:28 10° S 16:56:32 69° WSW 17:01:38 10° NNW
SL-08 R/B 3.8 16:57:06 40° ESE 16:57:06 40° ESE 17:01:07 10° S
RESURS DK-1 3.5 16:52:53 10° NW 16:56:43 43° WSW 17:00:31 10° S
Hubble Space Telescope 2.8 16:59:12 10° SSW 17:01:32 16° SSE 17:01:32 16° SSE
Cosmos 2278 Rocket 4.1 16:59:02 10° NW 17:03:54 30° WSW 17:08:45 10° SSW
OAO 1 Rocket 4.4 16:58:42 10° WSW 17:04:01 74° S 17:05:11 54° ESE
CZ-4C R/B 3.8 17:00:54 10° W 17:04:19 22° NW 17:08:01 11° N
YAOGAN 1 3.4 17:04:38 10° S 17:08:46 50° W 17:12:56 10° NNW
Meteor 1-24 Rocket 3.7 17:06:07 10° S 17:11:57 78° E 17:15:50 23° NNE
ATLAS 5 CENTAUR R/B 3.2 17:11:38 10° W 17:13:48 17° NW 17:14:21 16° NW
SPOT 1/Viking Rocket 3.6 17:11:12 10° S 17:16:21 78° WSW 17:21:31 10° NNW
Cosmos 1892 4.2 17:14:19 10° SSW 17:15:59 26° SW 17:15:59 26° SW
Cosmos 1943 3.9 17:16:12 10° S 17:19:58 38° SSE 17:19:58 38° SSE
Meteor 2-5 Rocket 3.7 17:16:36 10° S 17:22:18 89° W 17:25:03 33° N
Resurs 1-3 4.1 17:20:08 10° S 17:24:22 57° W 17:28:38 10° NNW
Cosmos 1656 Rocket 4.0 17:29:16 10° NNW 17:33:23 52° NNW 17:33:23 52° NNW
SL-16 R/B 3.5 17:32:35 10° SW 17:37:46 37° WNW 17:40:55 21° N
ACS3 Solar Sail 3.9 17:46:33 10° SSW 17:51:42 26° W 17:56:55 10° NW
ATLAS 2AS CENTAUR R/B 2.8 17:53:21 10° NNW 17:59:05 66° NW 17:59:05 66° NW
Cosmos 2369 Rocket 4.1 17:55:19 10° NNW 17:56:55 20° NNW 17:56:55 20° NNW
